Glendive, MT

11:23 AM MST on January 19, 2018 (GMT -0700)
Dawson Community

Weather History for KGDV - March, 2013

Change the Weather History Date:

Sunday, March 17, 2013

  Actual Average Record
Temperature  
Mean Temperature 18 °F -  
Max Temperature 30 °F 39 °F 68 °F (2012)
Min Temperature 5 °F 19 °F 5 °F (2013)
Degree Days  
Heating Degree Days 47    
Moisture  
Dew Point 16 °F    
Average Humidity 81    
Maximum Humidity 100    
Minimum Humidity 66    
Precipitation  
Precipitation 0.02 in - - ()
Sea Level Pressure  
Sea Level Pressure 29.63 in    
Wind  
Wind Speed 12 mph (SE)    
Max Wind Speed 37 mph    
Max Gust Speed 48 mph    
Visibility 8 miles    
Events      
Averages and records for this station are not official NWS values.
T = Trace of Precipitation, MM = Missing Value Source: NWS Daily Summary

Daily Weather History Graph

Daily Weather History Graph

Search for Another Location

Airport or City:

Trip Planner

Search our weather history database for the weather conditions in past years. The results will help you decide how hot, cold, wet, or windy it might be!

Date:

Astronomy

Mar. 17, 2013 Rise Set
Actual Time 7:07 AM MDT 7:08 PM MDT
Civil Twilight 6:37 AM MDT 7:38 PM MDT
Nautical Twilight 6:01 AM MDT 8:14 PM MDT
Astronomical Twilight 5:25 AM MDT 8:50 PM MDT
Moon 10:00 AM MDT (3/17) 12:39 AM MDT (3/17)
Length of Visible Light 13h 01m
Length of Day
12h 00m
Waxing Crescent, 32% of the Moon is Illuminated
Mar 17
Waxing Crescent
Mar 19
First Quarter
Mar 27
Full
Apr 2
Last Quarter
Apr 10
New

Hourly Weather History & Observations

Time (MDT) Temp. Windchill Dew Point Humidity Pressure Visibility Wind Dir Wind Speed Gust Speed Precip Events Conditions
12:15 AM 15.8 °F 4.2 °F 10.4 °F 79% 29.84 in 5.0 mi East 9.2 mph - N/A   Partly Cloudy
12:35 AM 15.8 °F 7.2 °F 10.4 °F 79% 29.83 in 5.0 mi East 5.8 mph - N/A   Clear
12:55 AM 15.8 °F 8.6 °F 12.2 °F 86% 29.81 in 7.0 mi East 4.6 mph - N/A   Clear
1:15 AM 17.6 °F 12.3 °F 14.0 °F 86% 29.80 in 8.0 mi ENE 3.5 mph - N/A   Mostly Cloudy
1:35 AM 19.4 °F 12.8 °F 15.8 °F 86% 29.80 in 10.0 mi NNE 4.6 mph - N/A   Overcast
1:55 AM 19.4 °F 12.8 °F 15.8 °F 86% 29.78 in 10.0 mi ENE 4.6 mph - N/A   Overcast
2:15 AM 21.2 °F 13.6 °F 15.8 °F 80% 29.77 in 10.0 mi East 5.8 mph - N/A   Overcast
2:36 AM 21.2 °F 11.7 °F 17.6 °F 86% 29.75 in 10.0 mi East 8.1 mph - N/A   Overcast
2:55 AM 21.2 °F 11.7 °F 17.6 °F 86% 29.74 in 10.0 mi East 8.1 mph - N/A   Overcast
3:15 AM 21.2 °F 12.6 °F 17.6 °F 86% 29.72 in 10.0 mi East 6.9 mph - N/A   Overcast
3:35 AM 23.0 °F 15.8 °F 19.4 °F 86% 29.70 in 10.0 mi East 5.8 mph - N/A   Overcast
3:55 AM 23.0 °F 14.7 °F 19.4 °F 86% 29.69 in 10.0 mi ESE 6.9 mph - N/A   Overcast
4:15 AM 24.8 °F 16.1 °F 19.4 °F 80% 29.67 in 10.0 mi SE 8.1 mph - N/A   Overcast
4:35 AM 24.8 °F 15.3 °F 21.2 °F 86% 29.66 in 10.0 mi SSE 9.2 mph - N/A   Overcast
4:55 AM 26.6 °F 15.7 °F 21.2 °F 80% 29.64 in 10.0 mi SSE 12.7 mph - N/A   Overcast
5:15 AM 26.6 °F 15.2 °F 21.2 °F 80% 29.63 in 10.0 mi SSE 13.8 mph - N/A   Overcast
5:35 AM 26.6 °F 16.2 °F 21.2 °F 80% 29.61 in 10.0 mi SE 11.5 mph - N/A   Overcast
5:56 AM 26.6 °F 16.2 °F 23.0 °F 86% 29.59 in 10.0 mi SE 11.5 mph - N/A   Overcast
6:15 AM 26.6 °F 15.7 °F 24.8 °F 93% 29.58 in 10.0 mi SE 12.7 mph - N/A   Overcast
6:35 AM 26.6 °F 17.5 °F 24.8 °F 93% 29.57 in 10.0 mi ESE 9.2 mph - N/A   Overcast
6:55 AM 26.6 °F 16.2 °F 26.6 °F 100% 29.56 in 10.0 mi SSE 11.5 mph - N/A   Overcast
7:35 AM 26.6 °F 19.1 °F 23.0 °F 86% 29.54 in 10.0 mi SE 6.9 mph - N/A   Overcast
7:55 AM 26.6 °F 18.2 °F 23.0 °F 86% 29.53 in 10.0 mi SE 8.1 mph - N/A   Overcast
8:15 AM 26.6 °F 16.8 °F 24.8 °F 93% 29.51 in 10.0 mi SE 10.4 mph - N/A   Overcast
8:35 AM 28.4 °F 19.1 °F 24.8 °F 86% 29.50 in 10.0 mi ESE 10.4 mph - N/A   Overcast
8:55 AM 28.4 °F 19.1 °F 24.8 °F 86% 29.49 in 10.0 mi ESE 10.4 mph - N/A   Overcast
9:35 AM 28.4 °F 20.4 °F 23.0 °F 80% 29.49 in 9.0 mi SE 8.1 mph - N/A   Overcast
9:55 AM 28.4 °F 20.4 °F 24.8 °F 86% 29.48 in 10.0 mi SSE 8.1 mph - N/A   Overcast
10:35 AM 26.6 °F 16.2 °F 24.8 °F 93% 29.47 in 0.8 mi SSE 11.5 mph - N/A   Overcast
10:55 AM 28.4 °F 18.0 °F 24.8 °F 86% 29.46 in 9.0 mi SSE 12.7 mph - N/A   Overcast
11:15 AM 28.4 °F 18.5 °F 24.8 °F 86% 29.45 in 10.0 mi SSE 11.5 mph 17.3 mph N/A   Overcast
11:35 AM 28.4 °F 18.5 °F 24.8 °F 86% 29.44 in 10.0 mi SSE 11.5 mph 19.6 mph N/A   Overcast
11:55 AM 28.4 °F 18.0 °F 23.0 °F 80% 29.43 in 10.0 mi SSE 12.7 mph - N/A   Mostly Cloudy
12:15 PM 28.4 °F 19.1 °F 23.0 °F 80% 29.44 in 1.0 mi SSE 10.4 mph - N/A   Overcast
12:35 PM 26.6 °F 16.8 °F 24.8 °F 93% 29.43 in 0.2 mi South 10.4 mph - N/A   Overcast
12:55 PM 28.4 °F 20.4 °F 24.8 °F 86% 29.43 in 1.2 mi SSE 8.1 mph - N/A   Overcast
1:15 PM 28.4 °F 22.2 °F 24.8 °F 86% 29.43 in 1.0 mi South 5.8 mph - N/A   Overcast
1:35 PM 28.4 °F 23.3 °F 26.6 °F 93% 29.43 in 0.8 mi SSE 4.6 mph - N/A   Overcast
1:55 PM 30.2 °F 26.7 °F 26.6 °F 86% 29.43 in 3.0 mi SSW 3.5 mph - N/A   Overcast
2:15 PM 30.2 °F 25.4 °F 26.6 °F 86% 29.42 in 5.0 mi SSW 4.6 mph - 0.02 in   Overcast
2:35 PM 30.2 °F 18.5 °F 26.6 °F 86% 29.44 in 3.0 mi West 17.3 mph 20.7 mph 0.02 in   Overcast
3:15 PM 28.4 °F 13.5 °F 23.0 °F 80% 29.45 in 3.0 mi NW 26.5 mph 38.0 mph N/A   Overcast
3:35 PM 26.6 °F 10.0 °F 21.2 °F 80% 29.47 in 2.5 mi NW 31.1 mph 38.0 mph N/A   Overcast
4:35 PM 24.8 °F 7.9 °F 17.6 °F 74% 29.53 in 2.5 mi WNW 29.9 mph 38.0 mph N/A   Overcast
4:55 PM 23.0 °F 5.1 °F 15.8 °F 74% 29.54 in 5.0 mi WNW 31.1 mph 42.6 mph N/A   Mostly Cloudy
5:15 PM 21.2 °F 1.4 °F 14.0 °F 74% 29.55 in 4.0 mi WNW 36.8 mph 48.3 mph N/A   Scattered Clouds
5:35 PM 19.4 °F 0.8 °F 12.2 °F 74% 29.59 in 2.5 mi NW 28.8 mph 44.9 mph N/A   Partly Cloudy
6:15 PM 15.8 °F -1.9 °F 8.6 °F 73% 29.65 in 2.0 mi WNW 21.9 mph 44.9 mph N/A   Mostly Cloudy
6:35 PM 15.8 °F -1.5 °F 6.8 °F 68% 29.67 in 4.0 mi NW 20.7 mph 34.5 mph N/A   Partly Cloudy
6:55 PM 14.0 °F -4.7 °F 6.8 °F 73% 29.70 in 5.0 mi NW 23.0 mph 36.8 mph N/A   Clear
7:15 PM 12.2 °F -7.5 °F 5.0 °F 73% 29.72 in 9.0 mi WNW 24.2 mph 31.1 mph N/A   Partly Cloudy
7:35 PM 12.2 °F -7.1 °F 3.2 °F 67% 29.74 in 10.0 mi NW 23.0 mph 33.4 mph N/A   Clear
7:55 PM 10.4 °F -10.3 °F 3.2 °F 73% 29.73 in 9.0 mi NW 25.3 mph 33.4 mph N/A   Clear
8:15 PM 10.4 °F -11.4 °F 1.4 °F 67% 29.74 in 10.0 mi NW 28.8 mph 35.7 mph N/A   Clear
8:35 PM 10.4 °F -10.3 °F 1.4 °F 67% 29.75 in 10.0 mi NW 25.3 mph 35.7 mph N/A   Clear
8:55 PM 8.6 °F -13.8 °F 1.4 °F 73% 29.77 in 10.0 mi NW 28.8 mph 34.5 mph N/A   Partly Cloudy
9:15 PM 8.6 °F -13.1 °F 1.4 °F 73% 29.80 in 10.0 mi NW 26.5 mph 32.2 mph N/A   Clear
9:35 PM 8.6 °F -12.3 °F -0.4 °F 67% 29.80 in 10.0 mi NW 24.2 mph 34.5 mph N/A   Clear
9:55 PM 8.6 °F -12.7 °F 1.4 °F 73% 29.81 in 10.0 mi NW 25.3 mph 31.1 mph N/A   Scattered Clouds
10:35 PM 6.8 °F -15.1 °F -2.2 °F 67% 29.84 in 10.0 mi NW 25.3 mph 33.4 mph N/A   Mostly Cloudy
10:55 PM 6.8 °F -12.9 °F -2.2 °F 67% 29.85 in 10.0 mi NW 19.6 mph 33.4 mph N/A   Partly Cloudy
11:15 PM 6.8 °F -12.4 °F -2.2 °F 67% 29.85 in 10.0 mi NW 18.4 mph 28.8 mph N/A   Mostly Cloudy
11:35 PM 6.8 °F -13.4 °F -2.2 °F 67% 29.87 in 10.0 mi NW 20.7 mph 29.9 mph N/A   Overcast
11:55 PM 5.0 °F -16.2 °F -4.0 °F 66% 29.87 in 10.0 mi WNW 21.9 mph 31.1 mph N/A   Mostly Cloudy